N5CSU Weather Reports


Display with metric or nautical units.
time (UTC)temp
F
wind
direction
speed
MPH
gust
MPH
rain 1hr
in
rain 24hr
in
rain mn
in
humidity
%
barometer
mb
20260502212921 75 178 1.0 1.0 0.00 0.00 0.00 37 1019.6
20260502212419 75 182 1.0 1.0 0.00 0.00 0.00 36 1019.6
20260502211916 75 190 0.0 0.0 0.00 0.00 0.00 34 1019.7
20260502211411 75 183 0.0 0.0 0.00 0.00 0.00 36 1019.6
20260502210909 76 183 0.0 0.0 0.00 0.00 0.00 35 1019.9
20260502210406 76 179 0.0 0.0 0.00 0.00 0.00 37 1019.9
20260502205903 75 178 0.0 0.0 0.00 0.00 0.00 38 1020.1
20260502205359 75 155 0.0 0.0 0.00 0.00 0.00 39 1019.9
20260502204856 75 182 0.0 0.0 0.00 0.00 0.00 36 1020.0
20260502204353 75 179 0.0 0.0 0.00 0.00 0.00 35 1020.3
20260502203851 75 171 0.0 1.0 0.00 0.00 0.00 33 1020.2
20260502203348 75 184 0.0 0.0 0.00 0.00 0.00 34 1020.2
20260502202844 75 157 0.0 0.0 0.00 0.00 0.00 34 1020.2
20260502202341 75 186 0.0 0.0 0.00 0.00 0.00 33 1020.2
20260502201839 75 174 1.0 2.0 0.00 0.00 0.00 36 1020.4
20260502201335 75 175 0.0 0.0 0.00 0.00 0.00 37 1020.2
20260502200831 74 159 0.0 0.0 0.00 0.00 0.00 38 1020.3
20260502200327 75 187 0.0 0.0 0.00 0.00 0.00 36 1020.5
20260502195825 75 183 0.0 0.0 0.00 0.00 0.00 34 1020.7
20260502195322 75 178 1.0 1.0 0.00 0.00 0.00 37 1020.6
20260502194818 75 181 0.0 0.0 0.00 0.00 0.00 36 1020.6
20260502194315 75 171 0.0 0.0 0.00 0.00 0.00 38 1020.7
20260502193812 75 172 1.0 1.0 0.00 0.00 0.00 36 1020.7
20260502193309 75 169 1.0 1.0 0.00 0.00 0.00 34 1020.7
20260502192804 74 189 0.0 0.0 0.00 0.00 0.00 38 1020.9
20260502192304 74 201 0.0 0.0 0.00 0.00 0.00 38 1020.8
20260502191758 74 206 0.0 0.0 0.00 0.00 0.00 34 1021.1
20260502191256 75 182 0.0 0.0 0.00 0.00 0.00 36 1021.1
20260502190753 74 187 0.0 0.0 0.00 0.00 0.00 37 1021.2
20260502190250 74 197 0.0 0.0 0.00 0.00 0.00 36 1021.1
20260502185745 74 183 0.0 0.0 0.00 0.00 0.00 39 1021.2
20260502185241 74 147 0.0 0.0 0.00 0.00 0.00 40 1021.1
20260502184737 74 183 0.0 0.0 0.00 0.00 0.00 35 1021.4
20260502184228 74 165 0.0 0.0 0.00 0.00 0.00 38 1021.3
20260502183725 73 174 0.0 0.0 0.00 0.00 0.00 39 1021.4
20260502183221 73 196 0.0 0.0 0.00 0.00 0.00 36 1021.6
20260502182716 73 195 0.0 0.0 0.00 0.00 0.00 38 1021.6
20260502182211 73 197 0.0 0.0 0.00 0.00 0.00 35 1021.6
20260502181708 73 184 0.0 0.0 0.00 0.00 0.00 39 1021.7
20260502181203 73 185 0.0 0.0 0.00 0.00 0.00 38 1021.6
20260502180659 72 178 0.0 0.0 0.00 0.00 0.00 40 1021.7
20260502180156 72 172 0.0 0.0 0.00 0.00 0.00 42 1021.8
20260502170120 71 197 0.0 0.0 0.00 0.00 0.00 43 1022.6
20260502164107 70 194 0.0 0.0 0.00 0.00 0.00 44 1022.5
20260502163603 70 168 1.0 2.0 0.00 0.00 0.00 44 1022.6
20260502163100 69 355 1.0 1.0 0.00 0.00 0.00 49 1022.6
20260502162556 69 182 0.0 0.0 0.00 0.00 0.00 47 1022.5
20260502162054 69 183 0.0 0.0 0.00 0.00 0.00 47 1022.7
20260502161550 69 182 0.0 0.0 0.00 0.00 0.00 45 1022.5
20260502161048 69 188 0.0 0.0 0.00 0.00 0.00 47 1022.6
20260502160546 68 207 0.0 0.0 0.00 0.00 0.00 53 1022.5
20260502151959 65 182 0.0 0.0 0.00 0.00 0.00 55 1022.3
20260502151455 65 187 0.0 0.0 0.00 0.00 0.00 62 1022.4
20260502150953 64 186 0.0 0.0 0.00 0.00 0.00 57 1022.5
20260502150450 64 177 0.0 0.0 0.00 0.00 0.00 57 1022.5
20260502130336 51 197 0.0 0.0 0.00 0.00 0.00 97 1021.8
20260502123318 48 198 0.0 0.0 0.00 0.00 0.00 96 1021.1
20260502122815 48 198 0.0 0.0 0.00 0.00 0.00 96 1020.9
20260502122311 48 198 0.0 0.0 0.00 0.00 0.00 96 1020.9
20260502121809 48 198 0.0 0.0 0.00 0.00 0.00 96 1020.9
20260502121306 48 198 0.0 0.0 0.00 0.00 0.00 96 1020.7
20260502120803 47 198 0.0 0.0 0.00 0.00 0.00 96 1020.5
20260502120300 47 198 0.0 0.0 0.00 0.00 0.00 96 1020.5
20260502115758 47 198 0.0 0.0 0.00 0.00 0.00 96 1020.6
20260502115254 47 198 0.0 0.0 0.00 0.00 0.00 96 1020.4
20260502114750 47 198 0.0 0.0 0.00 0.00 0.00 96 1020.5
20260502114247 47 198 0.0 0.0 0.00 0.00 0.00 96 1020.4
20260502113745 47 198 0.0 0.0 0.00 0.00 0.00 96 1020.3
20260502113242 47 198 0.0 0.0 0.00 0.00 0.00 96 1020.2
20260502112740 47 198 0.0 0.0 0.00 0.00 0.00 96 1019.9
20260502112237 47 198 0.0 0.0 0.00 0.00 0.00 96 1020.0
20260502111734 47 198 0.0 0.0 0.00 0.00 0.00 96 1019.9
20260502111232 47 198 0.0 0.0 0.00 0.00 0.00 96 1020.0
20260502110729 47 198 0.0 0.0 0.00 0.00 0.00 96 1019.6
20260502110227 47 201 0.0 0.0 0.00 0.00 0.00 96 1019.6
20260502105725 47 201 0.0 0.0 0.00 0.00 0.00 95 1019.7
20260502105221 47 201 0.0 0.0 0.00 0.00 0.00 95 1019.7
20260502104718 47 198 0.0 0.0 0.00 0.00 0.00 95 1019.9
20260502104216 47 198 0.0 0.0 0.00 0.00 0.00 95 1019.8
20260502103713 47 198 0.0 0.0 0.00 0.00 0.00 95 1019.9
20260502103211 47 198 0.0 0.0 0.00 0.00 0.00 95 1019.7
20260502102708 47 198 0.0 0.0 0.00 0.00 0.00 95 1019.4
20260502102204 48 198 0.0 0.0 0.00 0.00 0.00 95 1019.6
20260502101703 48 198 0.0 0.0 0.00 0.00 0.00 95 1019.7
20260502101201 47 198 0.0 0.0 0.00 0.00 0.00 95 1019.5
20260502100658 47 198 0.0 0.0 0.00 0.00 0.00 95 1019.5
20260502100156 47 198 0.0 0.0 0.00 0.00 0.00 95 1019.6
20260502091131 48 199 0.0 0.0 0.00 0.00 0.00 95 1019.4
20260502090627 48 199 0.0 0.0 0.00 0.00 0.00 95 1019.2
20260502090125 48 199 0.0 0.0 0.00 0.00 0.00 95 1019.1
20260502071522 50 199 0.0 0.0 0.00 0.00 0.00 95 1019.4
20260502071020 50 199 0.0 0.0 0.00 0.00 0.00 95 1019.4
20260502070518 50 199 0.0 0.0 0.00 0.00 0.00 95 1019.4
20260502070016 50 199 0.0 0.0 0.00 0.00 0.00 95 1019.5
20260502065514 50 199 0.0 0.0 0.00 0.00 0.00 95 1019.7
20260502065012 51 199 0.0 0.0 0.00 0.00 0.00 95 1019.5
20260502064510 51 199 0.0 0.0 0.00 0.00 0.00 95 1019.4
20260502064006 51 199 0.0 0.0 0.00 0.00 0.00 95 1019.5
20260502063504 51 199 0.0 0.0 0.00 0.00 0.00 95 1019.5
20260502063002 51 199 0.0 0.0 0.00 0.00 0.00 95 1019.5
20260502062458 51 199 0.0 0.0 0.00 0.00 0.00 95 1019.6
20260502061957 51 199 0.0 0.0 0.00 0.00 0.00 95 1019.3
20260502061455 51 199 0.0 0.0 0.00 0.00 0.00 95 1019.3
20260502060950 51 199 0.0 0.0 0.00 0.00 0.00 94 1019.6
20260502060446 51 199 0.0 0.0 0.00 0.00 0.00 94 1019.5
20260502055943 51 199 0.0 0.0 0.00 0.00 0.00 94 1019.6
20260502055440 52 199 0.0 0.0 0.00 0.00 0.00 94 1019.3
20260502054935 52 199 0.0 0.0 0.00 0.00 0.00 94 1019.4
20260502054433 52 199 0.0 0.0 0.00 0.00 0.00 94 1019.4
20260502053930 52 199 0.0 0.0 0.00 0.00 0.00 94 1019.5
20260502053427 52 199 0.0 0.0 0.00 0.00 0.00 94 1019.5
20260502052924 52 199 0.0 0.0 0.00 0.00 0.00 94 1019.6
20260502052422 53 199 0.0 0.0 0.00 0.00 0.00 94 1019.6
20260502051920 53 199 0.0 0.0 0.00 0.00 0.00 94 1019.4
20260502051418 53 199 0.0 0.0 0.00 0.00 0.00 94 1019.5
20260502050915 53 199 0.0 0.0 0.00 0.00 0.00 94 1019.6
20260502050411 53 199 0.0 0.0 0.00 0.00 0.00 93 1019.5
20260502045908 53 199 0.0 0.0 0.00 0.00 0.00 93 1019.5
20260502045404 53 199 0.0 0.0 0.00 0.00 0.00 93 1019.5
20260502044856 54 199 0.0 0.0 0.00 0.00 0.00 93 1019.4
20260502044352 54 199 0.0 0.0 0.00 0.00 0.00 93 1019.4
20260502043849 54 199 0.0 0.0 0.00 0.00 0.00 93 1019.4
20260502043347 54 199 0.0 0.0 0.00 0.00 0.00 93 1019.4
20260502042846 54 199 0.0 0.0 0.00 0.00 0.00 93 1019.4
20260502042344 54 199 0.0 0.0 0.00 0.00 0.00 93 1019.5
20260502041841 54 199 0.0 0.0 0.00 0.00 0.00 92 1019.2
20260502041338 55 199 0.0 0.0 0.00 0.00 0.00 92 1019.1
20260502040836 55 199 0.0 0.0 0.00 0.00 0.00 92 1019.2
20260502040332 55 199 0.0 0.0 0.00 0.00 0.00 91 1019.1
20260502035828 55 199 0.0 0.0 0.00 0.00 0.00 91 1019.2
20260502035325 55 199 0.0 0.0 0.00 0.00 0.00 90 1019.3
20260502034822 56 199 0.0 0.0 0.00 0.00 0.00 90 1019.2
20260502034321 56 199 0.0 0.0 0.00 0.00 0.00 90 1019.3
20260502033819 56 199 0.0 0.0 0.00 0.00 0.00 90 1019.4
20260502033316 56 199 0.0 0.0 0.00 0.00 0.00 89 1019.5
20260502032813 56 199 0.0 0.0 0.00 0.00 0.00 89 1019.2
20260502032309 56 199 0.0 0.0 0.00 0.00 0.00 89 1019.1
20260502031807 57 199 0.0 0.0 0.00 0.00 0.00 88 1019.0
20260502031305 57 199 0.0 0.0 0.00 0.00 0.00 87 1019.0
20260502030803 57 199 0.0 0.0 0.00 0.00 0.00 87 1018.9
20260502030301 57 199 0.0 0.0 0.00 0.00 0.00 87 1019.0
20260502025758 57 199 0.0 0.0 0.00 0.00 0.00 87 1018.9
20260502025256 57 199 0.0 0.0 0.00 0.00 0.00 87 1018.9
20260502024753 57 199 0.0 0.0 0.00 0.00 0.00 87 1018.8
20260502024251 57 199 0.0 0.0 0.00 0.00 0.00 87 1018.7
20260502023749 57 199 0.0 0.0 0.00 0.00 0.00 87 1018.8
20260502023246 58 199 0.0 0.0 0.00 0.00 0.00 86 1018.7
20260502022744 58 199 0.0 0.0 0.00 0.00 0.00 86 1018.8
20260502022239 58 199 0.0 0.0 0.00 0.00 0.00 86 1018.7
20260502021737 58 199 0.0 0.0 0.00 0.00 0.00 85 1018.5
20260502021234 58 199 0.0 0.0 0.00 0.00 0.00 85 1018.4
20260502020731 58 199 0.0 0.0 0.00 0.00 0.00 84 1018.3
20260502020228 58 199 0.0 0.0 0.00 0.00 0.00 84 1018.3
20260502015726 58 199 0.0 0.0 0.00 0.00 0.00 84 1018.1
20260502015222 58 199 0.0 0.0 0.00 0.00 0.00 83 1018.0
20260502014720 58 199 0.0 0.0 0.00 0.00 0.00 83 1017.8
20260502014217 58 199 0.0 0.0 0.00 0.00 0.00 83 1017.8
20260502013713 59 199 0.0 0.0 0.00 0.00 0.00 83 1017.8
20260502013208 59 199 0.0 0.0 0.00 0.00 0.00 82 1017.7
20260502012706 59 199 0.0 0.0 0.00 0.00 0.00 81 1017.5
20260502012204 59 199 0.0 0.0 0.00 0.00 0.00 81 1017.4
20260502011700 59 199 0.0 0.0 0.00 0.00 0.00 81 1017.5
20260502011156 59 199 0.0 0.0 0.00 0.00 0.00 81 1017.3
20260502010654 59 199 0.0 0.0 0.00 0.00 0.00 80 1017.2
20260502010149 60 199 0.0 0.0 0.00 0.00 0.00 78 1017.2
20260502005647 60 199 0.0 0.0 0.00 0.00 0.00 79 1017.0
20260502005145 60 201 0.0 0.0 0.00 0.00 0.00 77 1017.0
20260502004641 60 192 0.0 0.0 0.00 0.00 0.00 77 1017.1
20260502004137 60 192 0.0 0.0 0.00 0.00 0.00 77 1016.9
20260502003635 60 192 0.0 0.0 0.00 0.00 0.00 77 1016.9
20260502003132 60 193 0.0 0.0 0.00 0.00 0.00 76 1016.7
20260502002628 60 193 0.0 0.0 0.00 0.00 0.00 77 1016.8
20260502002126 61 193 0.0 0.0 0.00 0.00 0.00 78 1016.9
20260502001623 61 193 0.0 0.0 0.00 0.00 0.00 76 1016.9
20260502001121 61 193 0.0 0.0 0.00 0.00 0.00 76 1016.9
20260502000619 61 192 0.0 0.0 0.00 0.00 0.00 73 1016.7
20260502000116 61 193 0.0 0.0 0.00 0.00 0.00 75 1016.5
20260501235612 61 193 0.0 0.0 0.00 0.00 0.00 78 1016.5
20260501235108 60 193 0.0 0.0 0.00 0.00 0.00 78 1016.3
20260501234603 60 194 0.0 0.0 0.00 0.00 0.00 79 1016.1
20260501234101 60 194 0.0 0.0 0.00 0.00 0.00 77 1016.1
20260501233559 60 193 0.0 0.0 0.00 0.00 0.00 81 1016.0
20260501233056 61 193 0.0 0.0 0.00 0.00 0.00 80 1016.0
20260501232552 61 193 0.0 0.0 0.00 0.00 0.00 79 1016.1
20260501232049 61 193 0.0 0.0 0.00 0.00 0.00 77 1015.8
20260501231547 61 193 0.0 0.0 0.00 0.00 0.00 75 1016.0
20260501231045 61 193 0.0 0.0 0.00 0.00 0.00 76 1015.8
20260501230543 61 193 0.0 0.0 0.00 0.00 0.00 76 1015.8
20260501230041 61 193 0.0 0.0 0.00 0.00 0.00 75 1015.7
20260501225538 61 193 0.0 0.0 0.00 0.00 0.00 76 1015.6
20260501225034 61 182 0.0 0.0 0.00 0.00 0.00 75 1015.7
20260501224532 61 182 0.0 0.0 0.00 0.00 0.00 75 1015.7
20260501224029 61 182 0.0 0.0 0.00 0.00 0.00 73 1015.6
20260501223526 61 188 0.0 0.0 0.00 0.00 0.00 72 1015.8
20260501223022 61 185 0.0 0.0 0.00 0.00 0.00 74 1015.5
20260501222518 61 185 0.0 0.0 0.00 0.00 0.00 72 1015.7
20260501222015 61 185 0.0 0.0 0.00 0.00 0.00 72 1015.9
20260501221511 61 186 0.0 0.0 0.00 0.00 0.00 72 1015.7
20260501221010 62 198 0.0 0.0 0.00 0.00 0.00 67 1015.8
20260501220507 62 203 0.0 0.0 0.00 0.00 0.00 66 1015.5
20260501220003 62 189 0.0 0.0 0.00 0.00 0.00 68 1015.5
20260501215500 62 171 0.0 0.0 0.00 0.00 0.00 69 1015.4
20260501214955 62 169 0.0 0.0 0.00 0.00 0.00 66 1015.6
20260501214450 62 176 0.0 0.0 0.00 0.00 0.00 65 1015.7
20260501213946 62 168 0.0 1.0 0.00 0.00 0.00 65 1015.8
20260501213444 62 158 0.0 1.0 0.00 0.00 0.00 63 1015.7
20260501212938 62 150 0.0 0.0 0.00 0.00 0.00 63 1015.6